Jaipur, India

9:32 AM IST on February 26, 2018 (GMT +0530)
Jaipur

Weather History for VIJP - March, 2012

Change the Weather History Date:

Thursday, March 8, 2012

  Actual Average Record
Temperature  
Mean Temperature 66 °F -  
Max Temperature 79 °F - - ()
Min Temperature 54 °F - - ()
Cooling Degree Days 2    
Growing Degree Days 16 (Base 50)    
Moisture  
Dew Point 17 °F    
Average Humidity 16    
Maximum Humidity 82    
Minimum Humidity 4    
Precipitation  
Precipitation 0.00 in - - ()
Sea Level Pressure  
Sea Level Pressure 29.75 in    
Wind  
Wind Speed 8 mph ()    
Max Wind Speed 18 mph    
Max Gust Speed 28 mph    
Visibility 2.4 miles    
Events      
T = Trace of Precipitation, MM = Missing Value Source: Averaged Metar Reports

Daily Weather History Graph

Daily Weather History Graph

Search for Another Location

Airport or City:

Trip Planner

Search our weather history database for the weather conditions in past years. The results will help you decide how hot, cold, wet, or windy it might be!

Date:

Astronomy

Mar. 08, 2012 Rise Set
Actual Time 6:43 AM IST 6:31 PM IST
Civil Twilight 6:20 AM IST 6:55 PM IST
Nautical Twilight 5:53 AM IST 7:21 PM IST
Astronomical Twilight 5:26 AM IST 7:48 PM IST
Moon 6:39 PM IST (3/8) 6:15 AM IST (3/8)
Length of Visible Light 12h 34m
Length of Day
11h 48m
Full, 100% of the Moon is Illuminated
Mar 8
Full
Mar 8
Full
Mar 15
Last Quarter
Mar 22
New
Mar 31
First Quarter

Hourly Weather History & Observations

Time (IST) Temp. Dew Point Humidity Pressure Visibility Wind Dir Wind Speed Gust Speed Precip Events Conditions
12:00 AM 69.8 °F 17.6 °F 14% 29.74 in 2.2 mi NW 8.1 mph - N/A   Haze
1:00 AM 68.0 °F 15.8 °F 13% 29.74 in 2.2 mi NW 5.8 mph - N/A   Haze
2:00 AM 66.2 °F 51.8 °F 60% 29.71 in 2.2 mi NW 8.1 mph - N/A   Haze
2:30 AM 66 °F 18 °F 8% 29.68 in 1 mi NW 6.9 mph - -   Haze
2:30 AM 66.2 °F 12.2 °F 12% 29.71 in 2.2 mi NW 6.9 mph - N/A   Haze
3:00 AM 64.4 °F 12.2 °F 13% 29.71 in 2.2 mi NW 6.9 mph - N/A   Haze
4:00 AM 62.6 °F 12.2 °F 14% 29.68 in 2.2 mi WNW 5.8 mph - N/A   Haze
5:00 AM 57.2 °F 51.8 °F 82% 29.68 in 2.2 mi West 4.6 mph - N/A   Haze
5:30 AM 57 °F 16 °F 10% 29.70 in 1 mi West 5.8 mph - -   Haze
5:30 AM 57.2 °F 14.0 °F 18% 29.71 in 2.2 mi West 5.8 mph - N/A   Haze
6:00 AM 55.4 °F 14.0 °F 20% 29.71 in 2.2 mi WNW 4.6 mph - N/A   Haze
7:00 AM 53.6 °F 15.8 °F 22% 29.74 in 2.2 mi WNW 4.6 mph - N/A   Haze
8:00 AM 59.0 °F 15.8 °F 19% 29.74 in 2.2 mi WNW 4.6 mph - N/A   Haze
8:30 AM 61 °F 23 °F 13% 29.74 in 2 mi WNW 6.9 mph - -   Haze
8:30 AM 62.6 °F 30.2 °F 30% 29.77 in 2.5 mi WNW 8.1 mph - N/A   Haze
9:00 AM 64.4 °F 14.0 °F 14% 29.77 in 2.5 mi West 9.2 mph - N/A   Haze
10:00 AM 68.0 °F 14.0 °F 12% 29.80 in 2.5 mi West 10.4 mph - N/A   Haze
11:30 AM 69.8 °F 14.0 °F 12% 29.80 in 3.1 mi Variable 9.2 mph - N/A   Haze
12:00 PM 71.6 °F 15.8 °F 12% 29.80 in 3.1 mi West 9.2 mph - N/A   Haze
1:00 PM 75.2 °F 15.8 °F 11% 29.77 in 3.1 mi West 9.2 mph - N/A   Haze
2:00 PM 77.0 °F 14.0 °F 9% 29.74 in 3.1 mi WSW 10.4 mph - N/A   Haze
2:30 PM 78 °F 13 °F 4% 29.68 in 2 mi West 13.8 mph - -   Haze
2:30 PM 78.8 °F 12.2 °F 8% 29.71 in 3.1 mi West 13.8 mph - N/A   Haze
3:00 PM 78.8 °F 8.6 °F 7% 29.71 in 3.7 mi WNW 17.3 mph - N/A   Unknown
4:00 PM 77.0 °F 51.8 °F 41% 29.74 in 3.1 mi WNW 15.0 mph 27.6 mph N/A   Widespread Dust
4:30 PM 77.0 °F 12.2 °F 9% 29.74 in 3.1 mi WNW 15.0 mph - N/A   Widespread Dust
5:00 PM 77.0 °F 12.2 °F 9% 29.74 in 3.1 mi WNW 15.0 mph - N/A   Widespread Dust
5:30 PM 76 °F 14 °F 4% 29.69 in 2 mi West 17.3 mph - -   Blowing Sand
5:30 PM 75.2 °F 10.4 °F 8% 29.74 in 2.5 mi West 18.4 mph - N/A   Widespread Dust
6:00 PM 75.2 °F 10.4 °F 8% 29.74 in 2.5 mi WNW 13.8 mph - N/A   Widespread Dust
6:30 PM 73.4 °F 10.4 °F 9% 29.74 in 2.5 mi WNW 11.5 mph - N/A   Widespread Dust
7:00 PM 69.8 °F 10.4 °F 10% 29.77 in 2.5 mi West 11.5 mph - N/A   Widespread Dust
7:30 PM 68.0 °F 12.2 °F 12% 29.80 in 2.5 mi West 6.9 mph - N/A   Haze
8:00 PM 68.0 °F 14.0 °F 12% 29.80 in 2.5 mi WNW 4.6 mph - N/A   Haze
8:30 PM 65 °F 15 °F 7% 29.77 in 2 mi WNW 4.6 mph - -   Haze
9:00 PM 66.2 °F 14.0 °F 13% 29.83 in 2.5 mi WNW 4.6 mph - N/A   Haze
10:00 PM 64.4 °F 12.2 °F 13% 29.83 in 2.5 mi WNW 5.8 mph - N/A   Haze
11:00 PM 64.4 °F 10.4 °F 12% 29.83 in 2.5 mi NW 4.6 mph - N/A   Haze
11:30 PM 63 °F 19 °F 9% 29.80 in 2 mi NW 4.6 mph - -